Weather History for Miami, FL

Change the Weather History Date:

Thursday, February 27, 2014

  Actual Average Record
Temperature  
Mean Temperature 73 °F 71 °F  
Max Temperature 80 °F 79 °F 87 °F (1959)
Min Temperature 65 °F 64 °F 41 °F (1965)
Degree Days  
Heating Degree Days 0 1  
Month to date heating degree days 4 27  
Since 1 July heating degree days 61 117  
Cooling Degree Days 8 7  
Month to date cooling degree days 264 164  
Year to date cooling degree days 416 315  
Growing Degree Days 22 (Base 50)    
Moisture  
Dew Point 66 °F    
Average Humidity 76    
Maximum Humidity 93    
Minimum Humidity 58    
Precipitation  
Precipitation 0.21 in 0.09 in 2.66 in (1983)
Month to date precipitation 1.15 2.17  
Year to date precipitation 3.06 3.79  
Snow  
Snow 0.00 in - - ()
Month to date snowfall 0.0  
Since 1 July snowfall 0.0  
Snow Depth 0.00 in    
Sea Level Pressure  
Sea Level Pressure 29.88 in    
Wind  
Wind Speed 8 mph (WNW)    
Max Wind Speed 12 mph    
Max Gust Speed 18 mph    
Visibility 9 miles    
Events Rain    
T = Trace of Precipitation, MM = Missing Value Source: NWS Daily Summary

Daily Weather History Graph

Daily Weather History Graph

Search for Another Location

Airport:

Trip Planner

Search our weather history database for the weather conditions in past years. The results will help you decide how hot, cold, wet, or windy it might be!

Date:

Astronomy

Feb. 27, 2014 Rise Set
Actual Time 6:46 AM EST 6:21 PM EST
Civil Twilight 6:23 AM EST 6:45 PM EST
Nautical Twilight 5:56 AM EST 7:11 PM EST
Astronomical Twilight 5:29 AM EST 7:38 PM EST
Moon 5:10 AM EST (2/27) 4:50 PM EST (2/27)
Length of Visible Light 12h 21m
Length of Day
11h 35m
Waning Crescent, 4% of the Moon is Illuminated
Feb 27
Waning Crescent
Mar 1
New
Mar 8
First Quarter
Mar 16
Full
Mar 23
Last Quarter

Hourly Weather History & Observations

Time (EST) Temp. Heat Index Dew Point Humidity Pressure Visibility Wind Dir Wind Speed Gust Speed Precip Events Conditions
12:53 AM 72.0 °F - 69.1 °F 91% 29.83 in 10.0 mi SSW 9.2 mph - N/A   Mostly Cloudy
1:53 AM 72.0 °F - 70.0 °F 93% 29.82 in 6.0 mi SW 8.1 mph - N/A   Overcast
2:53 AM 72.0 °F - 70.0 °F 93% 29.81 in 6.0 mi SW 6.9 mph - N/A   Mostly Cloudy
3:53 AM 73.0 °F - 69.1 °F 87% 29.81 in 6.0 mi SW 6.9 mph - N/A   Overcast
4:53 AM 73.0 °F - 69.1 °F 87% 29.81 in 6.0 mi WSW 8.1 mph - 0.00 in Rain Light Rain
5:53 AM 72.0 °F - 70.0 °F 93% 29.82 in 5.0 mi SW 5.8 mph - 0.05 in   Overcast
6:13 AM 72.0 °F - 70.0 °F 93% 29.82 in 5.0 mi WSW 4.6 mph - N/A   Mostly Cloudy
6:53 AM 72.0 °F - 70.0 °F 93% 29.85 in 5.0 mi WSW 9.2 mph - N/A   Overcast
7:04 AM 72.0 °F - 70.0 °F 93% 29.85 in 6.0 mi WSW 4.6 mph - N/A   Overcast
7:14 AM 72.0 °F - 70.0 °F 93% 29.85 in 6.0 mi WSW 4.6 mph - N/A   Mostly Cloudy
7:34 AM 72.0 °F - 70.0 °F 93% 29.87 in 7.0 mi West 8.1 mph - N/A   Overcast
7:53 AM 72.0 °F - 69.1 °F 91% 29.87 in 10.0 mi WNW 9.2 mph - N/A   Overcast
8:33 AM 73.0 °F - 68.0 °F 84% 29.89 in 10.0 mi WNW 9.2 mph - N/A   Overcast
8:53 AM 73.0 °F - 66.9 °F 81% 29.90 in 10.0 mi WNW 10.4 mph - N/A   Overcast
9:14 AM 73.0 °F - 66.9 °F 81% 29.90 in 10.0 mi NW 8.1 mph - N/A   Overcast
9:48 AM 73.4 °F - 66.2 °F 78% 29.90 in 10.0 mi WNW 9.2 mph - N/A   Overcast
9:53 AM 73.9 °F - 66.0 °F 76% 29.90 in 10.0 mi WNW 8.1 mph - N/A   Overcast
10:04 AM 73.0 °F - 66.0 °F 79% 29.90 in 10.0 mi NW 9.2 mph - N/A   Overcast
10:39 AM 73.9 °F - 64.9 °F 73% 29.90 in 10.0 mi North 5.8 mph - N/A   Overcast
10:53 AM 73.9 °F - 64.9 °F 73% 29.90 in 10.0 mi NNW 5.8 mph - N/A   Overcast
11:53 AM 75.0 °F - 64.9 °F 71% 29.90 in 10.0 mi NNW 4.6 mph - N/A   Overcast
12:23 PM 77.0 °F - 66.0 °F 69% 29.88 in 10.0 mi WNW 5.8 mph - N/A   Overcast
12:53 PM 77.0 °F - 64.9 °F 66% 29.87 in 10.0 mi West 10.4 mph - N/A   Overcast
1:53 PM 79.0 °F - 64.9 °F 62% 29.86 in 10.0 mi West 9.2 mph - N/A   Overcast
2:53 PM 79.0 °F - 64.0 °F 60% 29.83 in 10.0 mi WSW 8.1 mph - N/A   Mostly Cloudy
3:53 PM 80.1 °F 81.7 °F 64.0 °F 58% 29.84 in 10.0 mi NNW 8.1 mph - N/A   Mostly Cloudy
4:53 PM 78.1 °F - 63.0 °F 60% 29.85 in 10.0 mi Variable 5.8 mph - N/A   Mostly Cloudy
5:53 PM 77.0 °F - 62.1 °F 60% 29.86 in 10.0 mi NNE 8.1 mph - N/A   Overcast
6:53 PM 73.9 °F - 61.0 °F 64% 29.88 in 10.0 mi NNW 10.4 mph - N/A   Mostly Cloudy
7:53 PM 73.0 °F - 61.0 °F 66% 29.90 in 10.0 mi North 6.9 mph - N/A   Overcast
8:43 PM 70.0 °F - 62.1 °F 76% 29.92 in 10.0 mi NNW 10.4 mph 17.3 mph 0.02 in Rain Light Rain
8:53 PM 69.1 °F - 62.1 °F 78% 29.94 in 9.0 mi NW 6.9 mph - 0.02 in Rain Light Rain
9:44 PM 66.0 °F - 63.0 °F 90% 29.95 in 10.0 mi NW 8.1 mph - 0.12 in Rain Light Rain
9:53 PM 66.0 °F - 63.0 °F 90% 29.96 in 10.0 mi NW 5.8 mph - 0.12 in Rain Light Rain
10:30 PM 64.9 °F - 63.0 °F 93% 29.95 in 8.0 mi NW 9.2 mph - 0.01 in Rain Light Rain
10:53 PM 66.0 °F - 64.0 °F 93% 29.94 in 10.0 mi NW 3.5 mph - 0.02 in   Overcast
11:53 PM 66.0 °F - 62.1 °F 87% 29.94 in 10.0 mi NNW 5.8 mph - N/A   Overcast